Regional Weather Roundup
Issued by NWS

Home | Current Version | Previous Version | Graphics & Text | Print | Product List | Glossary Off
Versions: 1 2 3 4 5 6 7 8 9 10 11 12 13 14 15 16 17 18 19 20 21 22 23 24 25 26 27 28 29 30 31 32 33 34 35 36 37 38 39 40 41 42 43 44 45 46 47 48 49 50

000
ASUS43 KDTX 270101
RWRMI
MICHIGAN HOURLY REGIONAL WEATHER ROUNDUP
NATIONAL WEATHER SERVICE DETROIT/PONTIAC MI
800 PM EST FRI DEC 26 2014

NOTE: "FAIR" INDICATES FEW OR NO CLOUDS BELOW 12,000 FEET WITH NO
SIGNIFICANT WEATHER AND/OR OBSTRUCTION TO VISIBILITY.

MIZ047>049-052>055-059>063-066>070-074>076-081>083-270200-
SOUTHEAST LOWER MICHIGAN

CITY           SKY/WX    TMP DP  RH WIND       PRES   REMARKS
ADRIAN         MOCLDY    39  37  92 S7        30.12S WCI  34
ALMA           MOCLDY    33  32  97 W3        30.07R
ANN ARBOR      MOCLDY    39  36  89 S5        30.10S
BAD AXE        PTCLDY    30  30 100 CALM      30.09R FOG
CARO           PTCLDY    31  30  96 CALM      30.08R
DETROIT CITY   MOCLDY    43  37  79 S6        30.12S
DETROIT        MOCLDY    40  37  89 S7        30.12S
FLINT          PTCLDY    42  35  76 S8        30.09R
GROSSE ILE     MOCLDY    37  36  93 S5        30.11F WCI  34
HILLSDALE      PTCLDY    41  40  94 S7        30.09R
HOWELL         PTCLDY    39  37  90 S6        30.08R WCI  35

CITY           SKY/WX    TMP DP  RH WIND       PRES   REMARKS
JACKSON        PTCLDY    41  36  82 S9        30.08R
LAMBERTVILLE   MOCLDY    45  37  76 S7        30.13R
LANSING        PTCLDY    40  35  83 S6        30.08R
LAPEER         FAIR      38  35  89 SW6       30.08S WCI  33
MASON          PTCLDY    38  34  85 CALM      30.08R
MONROE         MOCLDY    41  37  87 CALM      30.11S
MT. CLEMENS    MOCLDY    36  35  94 S9        30.09F WCI  29
PONTIAC        MOCLDY    41  37  86 S8        30.08S
PORT HOPE        N/A     33  31  92 CALM      30.07S
PORT HURON     PTCLDY    37  36  93 S7        30.11S WCI  32
TRI CITIES     PTCLDY    37  34  89 E5        30.07S WCI  33
TROY           MOCLDY    44  37  79 S7        30.12S
SAGINAW HB     PTCLDY    34  34 100 E3        30.08R
$$
MIZ043>046-050>051-056>058-064>065-071>073-077>080-270200-
SOUTHWEST LOWER MICHIGAN

CITY           SKY/WX    TMP DP  RH WIND       PRES   REMARKS
BATTLE CREEK   CLOUDY    43  38  82 S3        30.07R
BENTON HARBOR  CLOUDY    47  41  80 S3        30.05S
BIG RAPIDS     MOCLDY    36  35  99 CALM      30.04R
COLDWATER      CLOUDY    45  39  81 S8        30.08R
FREMONT        FAIR      36  35  96 CALM      30.04S
HOLLAND        CLOUDY    40  36  86 SE3       30.05S
GRAND RAPIDS   CLOUDY    36  33  89 CALM      30.06R
IONIA          CLOUDY    38  36  92 S3        30.06R
KALAMAZOO      CLOUDY    44  38  79 S6        30.07R
MARSHALL       CLOUDY    41  37  86 S7        30.06S
MOUNT PLEASANT MOCLDY    33  32  96 CALM      30.06S FOG
MUSKEGON       PTCLDY    42  37  82 S7        30.05R
SOUTH HAVEN    CLOUDY    45  39  79 S5        30.05S
$$
MIZ016>042-270200-
NORTHERN LOWER MICHIGAN

CITY           SKY/WX    TMP DP  RH WIND       PRES   REMARKS
ALPENA         CLOUDY    37  33  85 S3        30.08R
BEAVER ISLAND  CLOUDY    35  35  99 NE6       30.05R FOG     WCI  30
BELLAIRE       CLOUDY    38  35  89 CALM      30.05S
CADILLAC       CLOUDY    37  35  92 S6        30.02S WCI  32
CHARLEVOIX     CLOUDY    38  36  92 CALM      30.06F
FRANKFORT      CLOUDY    39  37  91 CALM      30.04R
GAYLORD        CLOUDY    35  34  96 S3        30.03R
GRAYLING       CLOUDY    35  34  96 CALM      30.04S
HARBOR SPRINGS CLOUDY    36  34  92 CALM      30.04S
HOUGHTON LAKE  CLOUDY    35  33  92 S5        30.05R WCI  31
MANISTEE       PTCLDY    37  34  87 CALM      30.04R
OSCODA         CLOUDY    36  34  90 CALM      30.07S
PELLSTON       CLOUDY    35  34  96 CALM      30.05R
ROGERS CITY    CLOUDY    37  35  92 S6        30.07S WCI  32
TRAVERSE CITY  CLOUDY    41  35  79 CALM      30.03R
$$
MIZ007>008-015-270200-
EASTERN UPPER MICHIGAN

CITY           SKY/WX    TMP DP  RH WIND       PRES   REMARKS
KINROSS        CLOUDY    34  34 100 CALM      30.05R VSB 3/4
MACKINAC ISLAN CLOUDY    37  36  99 CALM      30.04S
NEWBERRY       CLOUDY    32  32 100 N8        30.03F FOG     WCI  25
S. S. MARIE    CLOUDY    34  33  96 CALM      30.04S FOG
MUNISING         N/A     35  32  88 CALM      30.04S
$$
MIZ004>006-011>014-085-270200-
CENTRAL UPPER MICHIGAN

CITY           SKY/WX    TMP DP  RH WIND       PRES   REMARKS
MANISTIQUE     CLOUDY    33  33 100 CALM      30.04S FOG
ESCANABA       CLOUDY    34  30  86 CALM      30.05R
MENOMINEE      MOCLDY    36  32  87 NE7       30.03F WCI  30
SAWYER-GWINN   CLOUDY    32  30  93 N6        30.02S WCI  26
$$
MIZ001>003-009>011-084-270200-
WESTERN UPPER MICHIGAN

CITY           SKY/WX    TMP DP  RH WIND       PRES   REMARKS
IRON MOUNTAIN  CLOUDY    32  29  88 CALM      30.03R
HOUGHTON       CLOUDY    31  27  85 N5        30.04S WCI  26
COPPER HARBOR    N/A     35  26  69 NE6       30.06R WCI  30
IRONWOOD       CLOUDY    30  28  93 CALM      30.02F
$$

ABBREVIATIONS USED IN REMARKS
   TC - TEMPERATURE IN CELSIUS
  WCI - WIND CHILL INDEX
   HX - HEAT INDEX
  VSB - VISIBILITY



USA.gov is the U.S. government's official web portal to all federal, state and local government web resources and services.